sat.trackr.live / text

‹ back to catalog

STARLINK-34486

NORAD 64597 · 2025-137D

PAYLOAD ACTIVE UNKNOWN

§ Identity

Operator
Country
US
Launch date
2025-06-25
Launch site
AFETR
Launch vehicle
Mass (kg)
RCS (m²)

Purposes: comms

External: N2YO · Heavens-Above · Gunter

§ Orbital elements

Epoch: 2026-05-24T22:34:43.895712Z

Period
94.11 min
Inclination
53.1618°
Eccentricity
0.0001138
Mean motion
15.30190925 rev/d
Perigee alt
474.5 km
Apogee alt
476.0 km
Semi-major
6,853.4 km
B*
1.7190e-4
RAAN
341.4562°
Arg perigee
99.5731°
Mean anomaly
260.5398°
Rev number
5,240

§ Raw data

STARLINK-344861 64597U 25137D   26144.94078583  .00004734  00000+0  17190-3 0  99982 64597  53.1618 341.4562 0001138  99.5731 260.5398 15.30190925 52408

JSON: /api/v1/satellites/64597 · /tle

For live sub-satellite position, see the globe view (requires WebGL).

§ Visibility from observer

Set your observer location to see the next 7 days of passes ≥ 10°. The values pass through the URL so the page stays shareable.

No JS? Fill the form by hand. The geolocation button needs JavaScript.